Location: Plainartige
(45.6866°N, 1.7993°E)
Time: 17:51:22
(UTC+00:00)

POLYITAN 1 - Pass Details

Date: 29 June 2022
Orbit: 586 x 605 km, 98.0° (Epoch: 18 August)

Event Time Altitude Azimuth Distance (km) Brightness Sun altitude
Rises 00:56:41 0° 24° (NNE) 2,858 ? -19.7°
Reaches altitude 10° 00:59:08 10° 36° (NE) 1,953 ? -19.6°
Maximum altitude 01:02:45 27° 95° (E) 1,171 ? -19.4°
Enters shadow 01:04:30 21° 133° (SE) 1,389 ? -19.4°
